Weather History for Big Piney, WY

Change the Weather History Date:

Saturday, December 8, 2012

  Actual Average Record
Temperature  
Mean Temperature 7 °F 14 °F  
Max Temperature 25 °F 27 °F 49 °F (1987)
Min Temperature -11 °F 0 °F -35 °F (2005)
Degree Days  
Heating Degree Days 58 51  
Month to date heating degree days 313 401  
Since 1 July heating degree days 2478 3216  
Cooling Degree Days 0 0  
Month to date cooling degree days 0 0  
Year to date cooling degree days 67 35  
Moisture  
Dew Point 12 °F    
Average Humidity 71    
Maximum Humidity 92    
Minimum Humidity 49    
Precipitation  
Precipitation T in 0.00 in 0.08 in (2004)
Month to date precipitation 0.04 0.07  
Year to date precipitation 2.69 6.25  
Sea Level Pressure  
Sea Level Pressure 29.82 in    
Wind  
Wind Speed 12 mph (WNW)    
Max Wind Speed 32 mph    
Max Gust Speed 39 mph    
Visibility 5 miles    
Events Fog , Snow    
T = Trace of Precipitation, MM = Missing Value Source: NWS Daily Summary

Daily Weather History Graph

Daily Weather History Graph

Search for Another Location

Airport:

Trip Planner

Search our weather history database for the weather conditions in past years. The results will help you decide how hot, cold, wet, or windy it might be!

Date:

Astronomy

Dec. 08, 2012 Rise Set
Actual Time 7:38 AM MST 4:47 PM MST
Civil Twilight 7:06 AM MST 5:18 PM MST
Nautical Twilight 6:30 AM MST 5:54 PM MST
Astronomical Twilight 5:56 AM MST 6:28 PM MST
Moon 2:01 AM MST (12/8) 1:23 PM MST (12/8)
Length of Visible Light 10h 12m
Length of Day
9h 08m
Waning Crescent, 27% of the Moon is Illuminated
Dec 8
Waning Crescent
Dec 13
New
Dec 19
First Quarter
Dec 28
Full
Jan 4
Last Quarter

Hourly Weather History & Observations

Time (MST) Temp. Windchill Dew Point Humidity Pressure Visibility Wind Dir Wind Speed Gust Speed Precip Events Conditions
12:00 AM 24.8 °F 16.1 °F 21.2 °F 86% 29.79 in 4.0 mi SW 8.1 mph - 0.00 in Snow Light Snow
12:11 AM 23.0 °F 14.7 °F 21.2 °F 93% 29.79 in 2.0 mi SW 6.9 mph - 0.00 in Snow Light Snow
12:53 AM 24.1 °F 14.4 °F 21.0 °F 88% 29.77 in 2.0 mi SSW 9.2 mph - 0.00 in Snow Light Snow
1:04 AM 24.8 °F 15.3 °F 21.2 °F 86% 29.75 in 4.0 mi SW 9.2 mph - 0.00 in Snow Light Snow
1:34 AM 24.8 °F 15.3 °F 21.2 °F 86% 29.73 in 2.5 mi SW 9.2 mph - 0.00 in Snow Light Snow
1:39 AM 24.8 °F 14.6 °F 21.2 °F 86% 29.73 in 3.0 mi SW 10.4 mph - 0.00 in Snow Light Snow
1:51 AM 24.8 °F 14.0 °F 21.2 °F 86% 29.72 in 2.5 mi SW 11.5 mph - 0.00 in Snow Light Snow
1:53 AM 25.0 °F 14.8 °F 21.9 °F 88% 29.73 in 2.5 mi SW 10.4 mph - 0.00 in Snow Light Snow
2:07 AM 24.8 °F 15.3 °F 21.2 °F 86% 29.72 in 1.5 mi WSW 9.2 mph - 0.00 in Snow Light Snow
2:41 AM 24.8 °F 12.4 °F 21.2 °F 86% 29.73 in 0.8 mi West 15.0 mph - 0.00 in Snow Light Snow
2:53 AM 25.0 °F 13.6 °F 23.0 °F 92% 29.73 in 0.5 mi West 12.7 mph - 0.00 in Fog , Snow Snow
3:07 AM 24.8 °F 13.4 °F 21.2 °F 86% 29.72 in 1.0 mi West 12.7 mph - 0.00 in Snow Light Snow
3:18 AM 24.8 °F 11.5 °F 21.2 °F 86% 29.72 in 0.5 mi West 17.3 mph 23.0 mph 0.00 in Fog , Snow Snow
3:34 AM 24.8 °F 15.3 °F 21.2 °F 86% 29.71 in 1.5 mi WNW 9.2 mph - 0.00 in Snow Light Snow
3:47 AM 24.8 °F 16.1 °F 21.2 °F 86% 29.71 in 3.0 mi NW 8.1 mph - 0.00 in Snow Light Snow
3:48 AM 24.8 °F 15.3 °F 21.2 °F 86% 29.72 in 3.0 mi NW 9.2 mph - 0.00 in Snow Light Snow
3:53 AM 24.8 °F 16.1 °F 21.2 °F 86% 29.72 in 4.0 mi WNW 8.1 mph - N/A Snow Light Snow
4:53 AM 23.0 °F 13.1 °F 19.9 °F 88% 29.77 in 4.0 mi West 9.2 mph - 0.00 in Snow Light Snow
5:21 AM 23.0 °F 11.1 °F 17.6 °F 80% 29.72 in 1.8 mi WNW 12.7 mph - 0.00 in Snow Light Snow
5:37 AM 21.2 °F 10.1 °F 19.4 °F 93% 29.71 in 0.8 mi WNW 10.4 mph - 0.00 in Snow Light Snow
5:45 AM 21.2 °F 11.7 °F 19.4 °F 93% 29.71 in 1.2 mi West 8.1 mph - 0.00 in Snow Light Snow
5:53 AM 21.9 °F 11.7 °F 19.0 °F 89% 29.77 in 2.0 mi West 9.2 mph - 0.00 in Snow Light Snow
6:25 AM 21.2 °F 10.1 °F 17.6 °F 86% 29.70 in 4.0 mi West 10.4 mph - 0.00 in Snow Light Snow
6:48 AM 21.2 °F 8.9 °F 17.6 °F 86% 29.69 in 2.0 mi West 12.7 mph - 0.00 in Snow Light Snow
6:53 AM 21.9 °F 10.4 °F 18.0 °F 85% 29.74 in 2.5 mi West 11.5 mph - 0.00 in Snow Light Snow
7:10 AM 21.2 °F 10.9 °F 17.6 °F 86% 29.68 in 3.0 mi West 9.2 mph - 0.00 in Snow Light Snow
7:53 AM 21.0 °F 12.4 °F 17.1 °F 85% 29.74 in 10.0 mi WSW 6.9 mph - 0.00 in   Overcast
8:53 AM 23.0 °F 11.1 °F 16.0 °F 74% 29.74 in 9.0 mi WNW 12.7 mph 17.3 mph 0.00 in   Overcast
9:14 AM 19.4 °F 1.8 °F 15.8 °F 86% 29.72 in 1.2 mi North 25.3 mph 31.1 mph 0.00 in Snow Light Snow
9:18 AM 17.6 °F -1.0 °F 12.2 °F 79% 29.72 in 0.5 mi North 26.5 mph 35.7 mph 0.00 in Snow Snow
9:35 AM 15.8 °F -4.4 °F 12.2 °F 86% 29.73 in 0.2 mi North 29.9 mph 39.1 mph 0.00 in Fog Light Freezing Fog
9:46 AM 15.8 °F -3.1 °F 10.4 °F 79% 29.74 in 1.8 mi North 25.3 mph 35.7 mph 0.00 in Snow Light Snow
9:51 AM 15.8 °F -3.4 °F 10.4 °F 79% 29.74 in 3.0 mi North 26.5 mph 35.7 mph 0.00 in Snow Light Snow
9:53 AM 17.1 °F -2.7 °F 10.9 °F 77% 29.83 in 3.0 mi North 29.9 mph 38.0 mph 0.00 in Snow Light Snow
10:05 AM 15.8 °F -2.7 °F 10.4 °F 79% 29.76 in 2.5 mi North 24.2 mph 38.0 mph 0.00 in Snow Light Snow
10:15 AM 15.8 °F -1.9 °F 10.4 °F 79% 29.77 in 1.5 mi North 21.9 mph 35.7 mph 0.00 in Snow Light Snow
10:31 AM 17.6 °F 0.1 °F 10.4 °F 73% 29.78 in 3.0 mi North 23.0 mph 27.6 mph 0.00 in Snow Light Snow
10:53 AM 17.1 °F -1.4 °F 6.1 °F 62% 29.89 in 10.0 mi NNW 25.3 mph 31.1 mph 0.00 in   Mostly Cloudy
11:53 AM 19.0 °F 2.4 °F 3.9 °F 52% 29.88 in 10.0 mi North 21.9 mph 27.6 mph N/A   Mostly Cloudy
12:53 PM 19.0 °F 3.2 °F 3.0 °F 50% 29.89 in 10.0 mi NNW 19.6 mph - N/A   Mostly Cloudy
1:53 PM 18.0 °F 3.6 °F 5.0 °F 57% 29.91 in 10.0 mi NNW 15.0 mph - N/A   Mostly Cloudy
2:53 PM 17.1 °F 1.0 °F 3.9 °F 56% 29.94 in 10.0 mi NNW 18.4 mph 25.3 mph N/A   Clear
3:53 PM 16.0 °F 5.3 °F 1.9 °F 54% 29.98 in 10.0 mi North 8.1 mph - N/A   Clear
4:53 PM 3.9 °F -8.2 °F -2.9 °F 73% 30.05 in 10.0 mi NNW 6.9 mph - N/A   Clear
5:53 PM 5.0 °F -10.8 °F -5.1 °F 63% 30.07 in 10.0 mi North 11.5 mph - N/A   Clear
6:53 PM 3.9 °F -11.3 °F -6.0 °F 64% 30.09 in 10.0 mi NW 10.4 mph - N/A   Clear
7:53 PM -0.0 °F -11.6 °F -8.0 °F 69% 30.12 in 10.0 mi Variable 5.8 mph - N/A   Clear
8:53 PM -4.0 °F -16.3 °F -11.9 °F 69% 30.14 in 10.0 mi North 5.8 mph - N/A   Clear
9:53 PM -4.0 °F -12.4 °F -11.9 °F 69% 30.18 in 10.0 mi NNW 3.5 mph - N/A   Clear
10:53 PM -2.0 °F -10.1 °F -11.0 °F 66% 30.19 in 10.0 mi NW 3.5 mph - N/A   Clear
11:53 PM -6.0 °F -16.9 °F -13.0 °F 72% 30.21 in 10.0 mi ENE 4.6 mph - N/A   Partly Cloudy